Change the Weather History Date:

Thursday, December 13, 2012

  Actual Average Record
Temperature  
Mean Temperature 47 °F -  
Max Temperature 64 °F 52 °F 69 °F (1996)
Min Temperature 30 °F 27 °F 19 °F (1997)
Degree Days  
Heating Degree Days 18    
Moisture  
Dew Point 25 °F    
Average Humidity 49    
Maximum Humidity 69    
Minimum Humidity 24    
Precipitation  
Precipitation 0.00 in - - ()
Sea Level Pressure  
Sea Level Pressure 30.12 in    
Wind  
Wind Speed 10 mph (SE)    
Max Wind Speed 18 mph    
Max Gust Speed 20 mph    
Visibility 10 miles    
Events      
Averages and records for this station are not official NWS values.
T = Trace of Precipitation, MM = Missing Value Source: NWS Daily Summary

Daily Weather History Graph

Daily Weather History Graph

Search for Another Location

Airport or City:

Trip Planner

Search our weather history database for the weather conditions in past years. The results will help you decide how hot, cold, wet, or windy it might be!

Date:

Astronomy

Dec. 13, 2012 Rise Set
Actual Time 7:35 AM CST 5:27 PM CST
Civil Twilight 7:07 AM CST 5:55 PM CST
Nautical Twilight 6:36 AM CST 6:26 PM CST
Astronomical Twilight 6:05 AM CST 6:57 PM CST
Moon 7:46 AM CST (12/13) 6:10 PM CST (12/13)
Length of Visible Light 10h 47m
Length of Day
9h 51m
New Moon, 0% of the Moon is Illuminated
Dec 13
New Moon
Dec 19
First Quarter
Dec 28
Full
Jan 4
Last Quarter
Jan 11
New

Hourly Weather History & Observations

Time (CST) Temp. Windchill Dew Point Humidity Pressure Visibility Wind Dir Wind Speed Gust Speed Precip Events Conditions
12:55 AM 33.3 °F 26.4 °F 18.3 °F 54% 30.13 in 10.0 mi SE 8.1 mph - N/A   Clear
1:55 AM 33.3 °F 27.1 °F 19.2 °F 56% 30.13 in 10.0 mi ESE 6.9 mph - N/A   Clear
2:55 AM 32.9 °F 26.7 °F 19.8 °F 59% 30.12 in 10.0 mi ESE 6.9 mph - N/A   Clear
3:55 AM 32.9 °F 27.5 °F 20.5 °F 60% 30.12 in 10.0 mi ESE 5.8 mph - N/A   Clear
4:55 AM 33.4 °F 26.6 °F 21.0 °F 60% 30.12 in 10.0 mi ESE 8.1 mph - N/A   Clear
5:55 AM 30.4 °F 21.5 °F 20.8 °F 68% 30.14 in 10.0 mi SSE 10.4 mph - N/A   Clear
6:55 AM 30.6 °F 23.1 °F 21.2 °F 68% 30.16 in 10.0 mi SE 8.1 mph - N/A   Clear
7:55 AM 30.6 °F 23.8 °F 21.4 °F 69% 30.17 in 10.0 mi SE 6.9 mph - N/A   Clear
8:55 AM 36.7 °F 28.9 °F 23.0 °F 58% 30.17 in 10.0 mi SE 11.5 mph - N/A   Clear
9:55 AM 44.6 °F 38.1 °F 23.5 °F 44% 30.18 in 10.0 mi SSE 13.8 mph - N/A   Clear
10:55 AM 50.0 °F - 24.3 °F 37% 30.19 in 10.0 mi South 13.8 mph - N/A   Clear
11:55 AM 56.3 °F - 25.2 °F 30% 30.16 in 10.0 mi South 13.8 mph - N/A   Clear
12:55 PM 59.4 °F - 25.9 °F 28% 30.12 in 10.0 mi South 13.8 mph - N/A   Clear
1:55 PM 63.1 °F - 27.0 °F 25% 30.08 in 10.0 mi South 15.0 mph - N/A   Clear
2:55 PM 64.2 °F - 27.0 °F 24% 30.06 in 10.0 mi South 18.4 mph - N/A   Clear
3:55 PM 63.9 °F - 26.8 °F 25% 30.06 in 10.0 mi SSE 16.1 mph - N/A   Clear
4:55 PM 60.4 °F - 27.3 °F 28% 30.06 in 10.0 mi SE 12.7 mph - N/A   Clear
6:55 PM 44.4 °F 39.0 °F 26.1 °F 49% 30.09 in 10.0 mi ESE 10.4 mph - N/A   Clear
7:55 PM 47.3 °F - 27.7 °F 47% 30.09 in 10.0 mi ESE 9.2 mph - N/A   Clear
8:55 PM 43.9 °F 38.3 °F 29.1 °F 56% 30.09 in 10.0 mi ESE 10.4 mph 19.6 mph N/A   Clear
9:55 PM 46.6 °F - 32.2 °F 57% 30.08 in 10.0 mi ESE 10.4 mph - N/A   Clear
10:55 PM 44.8 °F 39.9 °F 33.4 °F 64% 30.08 in 10.0 mi SE 9.2 mph - N/A   Clear
11:55 PM 44.8 °F 39.9 °F 34.5 °F 67% 30.08 in 10.0 mi SE 9.2 mph - N/A   Clear